Regional Weather Roundup
Issued by NWS

Home | Current Version | Previous Version | Text Only | Print | Product List | Glossary On
Versions: 1 2 3 4 5 6 7 8 9 10 11 12 13 14 15 16 17 18 19 20 21 22 23 24 25 26 27 28
000
ASUS46 KSEW 081510
RWRWA

WASHINGTON REGIONAL WEATHER ROUNDUP
NATIONAL WEATHER SERVICE SEATTLE WA
700 AM PST THU DEC 08 2016

NOTE:"FAIR" INDICATES FEW OR NO CLOUDS BELOW 12,000 FEET WITH NO
SIGNIFICANT WEATHER AND/OR OBSTRUCTIONS TO VISIBILITY.

WAZ507-509-555>559-081600-
SEATTLE, TACOMA, EVERETT, AND VICINITY

CITY           SKY/WX    TMP DP  RH WIND       PRES   REMARKS
EVERETT        PTCLDY    28  15  58 N5        30.12F
BOEING FIELD   PTCLDY    34  15  46 NE5       30.13F
RENTON         PTCLDY    35  14  42 CALM      30.12F
SEATAC AIRPORT MOCLDY    33  12  41 E20       30.10F WCI  21
JBLM-MCCHORD   PTCLDY    17  16  98 S5        30.07F
PUYALLUP       FAIR      19  18  93 CALM      30.06S
BREMERTON      PTCLDY    28  18  64 N10       30.13F WCI  19
JBLM-FT LEWIS  PTCLDY    21  19  93 CALM      30.07F
TACOMA NARROWS CLEAR     33  15  47 NE10      30.08F WCI  25
$$

WAZ001-503-506-510-514-515-081600-
NORTH INTERIOR

CITY           SKY/WX    TMP DP  RH WIND       PRES   REMARKS
BELLINGHAM     FLURRIES  25   5  42 NE21G32   30.21F WCI  11
FRIDAY HARBOR  CLEAR     26  15  63 N6        30.20F
EASTSOUND      FLURRIES  28  12  50 NE14G29   30.21F WCI  17
PORT ANGELES   CLEAR     27  19  72 SE10      30.14F WCI  17
EDIZ HOOK      FAIR      31  23  72 SE14G21   30.16F WCI  21
PORT TOWNSEND    N/A     18  16  93 CALM      30.18F
NAS WHIDBEY    MOCLDY    30  10  43 NE13      30.22F WCI  20
ARLINGTON      CLEAR     21   9  58 CALM      30.18F
BURLINGTON     NOT AVBL
$$

WAZ020-022-039-040-504-511-512-081600-
SOUTHWEST INTERIOR

CITY           SKY/WX    TMP DP  RH WIND       PRES   REMARKS
SHELTON        CLEAR     32  16  51 NE12G21   30.06F WCI  23
OLYMPIA        CLEAR     30  18  60 N8        30.07F
CHEHALIS       NOT AVBL
KELSO          CLEAR     31  23  72 CALM      30.05R
VANCOUVER      MOCLDY    33  15  47 E15G26    30.04S WCI  23
SCAPPOOSE, OR  PTCLDY    27  21  78 NW3       30.05F
PORTLAND, OR   CLOUDY    33  16  49 E32G41    30.03S WCI  19
$$

WAZ021-516-517-081600-
WASHINGTON COAST

CITY           SKY/WX    TMP DP  RH WIND       PRES   REMARKS
FORKS          CLEAR     31  19  61 NE17G25   30.00F WCI  19
HOQUIAM        PTCLDY    33  18  53 NE22G30   29.98F WCI  21
ASTORIA, OR    MOCLDY    36  18  48 E14G25    29.94F
$$

WAZ019-023-024-040-567>569-081600-
CASCADE MOUNTAINS AND COLUMBIA GORGE

CITY           SKY/WX    TMP DP  RH WIND       PRES   REMARKS
STAMPEDE PASS  MOCLDY    11   9  92 E10G22    30.01F FOG     WCI  -3
TROUTDALE, OR  PTCLDY    33  18  53 E22G35    30.05F WCI  21
THE DALLES, OR CLOUDY    26  17  68 E10       30.33F WCI  16
$$

WAZ026-027-041>044-520-521-081600-
EAST SLOPES

CITY           SKY/WX    TMP DP  RH WIND       PRES   REMARKS
OMAK           PTCLDY    17   6  62 NW14      30.43F WCI   3
WENATCHEE      MOCLDY    18  11  74 CALM      30.37F
ELLENSBURG     MOCLDY    18  11  74 N3        30.28F
YAKIMA         CLOUDY    24  13  62 SW5       30.33F
$$

WAZ028-034-035-081600-
COLUMBIA BASIN

CITY           SKY/WX    TMP DP  RH WIND       PRES   REMARKS
EPHRATA        PTCLDY    13   3  64 NE6       30.35F
MOSES LAKE     PTCLDY    13   8  81 N12       30.35F WCI  -1
PASCO          PTCLDY    14  12  92 S3        30.39S
HERMISTON, OR  PTCLDY    14  11  87 S5        30.32F
$$

WAZ036>038-081600-
NORTHEAST WASHINGTON

CITY           SKY/WX    TMP DP  RH WIND       PRES   REMARKS
SPOKANE GEIGER PTCLDY    14   4  64 NE12      30.30F WCI   0
SPOKANE FELTS  CLEAR     15  10  80 CALM      30.35F
FAIRCHILD AFB  CLEAR     12   4  72 NE12      30.28F WCI  -2
COEURDALENE,ID CLEAR     11   5  77 NE13      30.34F WCI  -4
DEER PARK      CLEAR     15   3  59 NE14      30.34F WCI   0
$$

WAZ029>033-081600-
SOUTHEAST WASHINGTON

CITY           SKY/WX    TMP DP  RH WIND       PRES   REMARKS
PULLMAN        PTCLDY    15   8  73 E15       30.24F WCI   0
LEWISTON, ID   PTCLDY    12   7  80 S7        30.33F
WALLA WALLA    FOG       16  13  88 CALM      30.28F VSB 1/4
PENDLETON, OR  MOCLDY     9   5  84 S3        30.24F
$$




USA.gov is the U.S. government's official web portal to all federal, state and local government web resources and services.